This is the latest recevied weather packets stored in our database for station/object KC1TEM-13. If no packets are shown the sender has not sent any weather packets the latest 10 day(s).
| Time | Temp. | Humidity | Pressure | Rain* | Wind** | Luminosity | Snow |
|---|---|---|---|---|---|---|---|
| 1777511241 | 6.67° C | 95% | 1014.1 hPa | 0 mm | - | 0 W/m² | - |
| 1777510937 | 6.67° C | 95% | 1014.2 hPa | 0 mm | - | 0 W/m² | - |
| 1777510634 | 6.67° C | 95% | 1014.1 hPa | 0 mm | - | 0 W/m² | - |
| 1777510330 | 6.67° C | 95% | 1014 hPa | 0 mm | - | 0 W/m² | - |
| 1777510026 | 6.67° C | 95% | 1013.9 hPa | 0 mm | - | 0 W/m² | - |
| 1777509723 | 6.67° C | 95% | 1014 hPa | 0 mm | - | 0 W/m² | - |
| 1777509418 | 6.67° C | 95% | 1013.9 hPa | 0 mm | - | 0 W/m² | - |
| 1777509116 | 6.67° C | 94% | 1013.9 hPa | 0 mm | - | 0 W/m² | - |
| 1777508813 | 6.67° C | 94% | 1014 hPa | 0 mm | - | 0 W/m² | - |
| 1777508510 | 6.67° C | 94% | 1014.1 hPa | 0 mm | - | 0 W/m² | - |
| 1777508207 | 6.67° C | 94% | 1014.1 hPa | 0 mm | - | 0 W/m² | - |
| 1777507904 | 6.67° C | 93% | 1014.1 hPa | 0 mm | - | 0 W/m² | - |
| 1777507601 | 6.67° C | 93% | 1014.3 hPa | 0 mm | - | 0 W/m² | - |
| 1777507298 | 6.67° C | 92% | 1014.2 hPa | 0 mm | - | 0 W/m² | - |
| 1777506995 | 6.67° C | 92% | 1014.5 hPa | 0 mm | - | 0 W/m² | - |
| 1777506693 | 6.67° C | 92% | 1014.4 hPa | 0 mm | - | 0 W/m² | - |
| 1777506389 | 6.67° C | 91% | 1014.4 hPa | 0 mm | - | 1 W/m² | - |
| 1777506085 | 6.67° C | 91% | 1014.6 hPa | 0 mm | - | 1 W/m² | - |
| 1777505781 | 6.67° C | 91% | 1014.6 hPa | 0 mm | - | 2 W/m² | - |
| 1777505478 | 6.67° C | 91% | 1014.6 hPa | 0 mm | - | 2 W/m² | - |
| 1777505174 | 7.22° C | 91% | 1014.6 hPa | 0 mm | - | 3 W/m² | - |
| 1777504871 | 7.22° C | 91% | 1014.6 hPa | 0 mm | - | 5 W/m² | - |
| 1777504569 | 6.67° C | 91% | 1014.4 hPa | 0 mm | - | 8 W/m² | - |
| 1777504264 | 6.67° C | 91% | 1014.4 hPa | 0 mm | - | 13 W/m² | - |
| 1777503960 | 6.67° C | 90% | 1014.3 hPa | 0 mm | - | 12 W/m² | - |
* Rain latest hour (hover to see other rain measurements)
** Current wind speed in m/s (hover to see current wind gust speed)